Location: Poughquag
(41.6090°N, 73.6820°W)
Time: 10:58:53
(UTC-04:00)

Transit 2A Rocket - Pass Details

Date: 01 June 2020
Orbit: 584 x 919 km, 66.7° (Epoch: 06 July)

Event Time Altitude Azimuth Distance (km) Brightness Sun altitude
Rises 22:23:19 0° 201° (SSW) 3,017 - -17.4°
Reaches altitude 10° 22:25:32 10° 199° (SSW) 2,154 - -17.6°
Exits shadow 22:26:34 17° 197° (SSW) 1,763 6.5 -17.7°
Maximum altitude 22:30:25 70° 117° (ESE) 800 4.9 -18.2°
Drops below altitude 10° 22:35:52 10° 34° (NE) 2,394 7.8 -18.7°
Sets 22:38:26 0° 33° (NNE) 3,382 8.7 -19.0°
